Weather Roundup
Issued by NWS

Home | Current Version | Previous Version | Graphics & Text | Print | Product List | Glossary Off
Versions: 1 2 3 4 5 6 7 8 9 10 11 12 13 14 15 16 17 18 19 20 21 22 23 24 25 26 27 28 29 30 31 32 33 34 35 36 37 38 39 40 41 42 43 44 45 46 47 48 49 50

000
NZUS93 KARX 270710
HRRWXR

CURRENT HOURLY OBSERVATIONS ACROSS
MUCH OF THE UPPER MISSISSIPPI VALLEY
NATIONAL WEATHER SERVICE LA CROSSE WI
100 AM CST FRI FEB 27 2015


...SOUTHEAST MINNESOTA...


CITY           SKY/WX    TMP DP  RH WIND       PRES   REMARKS
ROCHESTER      CLEAR    -11 -16  78 W9        30.45R WCI -29
ROCHESTER/MAYO FAIR      -3  -8  79 W7        30.46S WCI -16
WINONA         CLEAR     -4  -9  77 CALM      30.52S
AUSTIN         CLEAR     -8 -11  84 NW8       30.46S WCI -23
ALBERT LEA     PTCLDY    -8 -11  84 NW5       30.47S WCI -19
DODGE CENTER   PTCLDY    -8 -13  77 W7        30.44S WCI -22
PRESTON        CLEAR    -10 -15  78 NW8       30.45S WCI -26
OWATONNA       CLEAR    -15 -18  84 W3        30.48S
FARIBAULT      CLEAR     -8 -11  84 CALM      30.49S
$$

...ELSEWHERE IN MINNESOTA...


CITY           SKY/WX    TMP DP  RH WIND       PRES   REMARKS
MINNEAPOLIS    CLEAR      1  -9  62 W5        30.50R WCI  -9
INTNL FALLS    PTCLDY   -14 -20  74 W6        30.36F WCI -28
DULUTH         CLEAR     -4 -15  59 NW16      30.33F WCI -25
RED WING       CLEAR     -9 -17  70 W3        30.49S
REDWOOD FALLS  CLEAR     -8 -13  78 W8        30.53S WCI -24
MANKATO        CLEAR     -6 -15  65 W5        30.50S WCI -17
FAIRMONT       PTCLDY    -8 -13  77 NW8       30.48S WCI -23
$$

...SOUTHWEST WISCONSIN...


CITY           SKY/WX    TMP DP  RH WIND       PRES   REMARKS
LA CROSSE      CLEAR     -5 -10  79 CALM      30.50R
PRAIRIE DU CHI CLEAR     -7 -13  77 W3        30.52R
BOSCOBEL       CLEAR     -9 -15  75 CALM      30.51R
LONE ROCK      CLEAR     -7 -12  79 W3        30.48R
PLATTEVILLE    CLEAR     -8 -13  77 W6        30.45S WCI -21
FORT MC COY    CLEAR    -14 -19  78 CALM      30.47S
CAMP DOUGLAS   CLEAR     -6 -10  79 W5        30.44R WCI -16
VIROQUA        FAIR      -3  -9  75 W6        30.42R WCI -15
WIS DELLS      CLEAR     -2 -11  66 CALM      30.43S
$$

...ELSEWHERE IN WISCONSIN...


CITY           SKY/WX    TMP DP  RH WIND       PRES   REMARKS
MILWAUKEE      CLEAR      5  -6  60 NW7       30.42S WCI  -7
MADISON        CLEAR     -2  -9  72 W3        30.44R
GREEN BAY      CLEAR      0  -8  69 W8        30.42R WCI -14
EAU CLAIRE     CLEAR     -3 -12  65 W3        30.45S
BLACK RVR FLS  FAIR     -17 -23  71 CALM      30.46S
MEDFORD        CLEAR     -7 -15  69 W5        30.35R WCI -19
WAUSAU         CLEAR     -3 -12  65 NW5       30.37R WCI -13
WIS RAPIDS     CLEAR     -3 -13  62 NW3       30.43R
MARSHFIELD     CLEAR     -3 -13  62 W7        30.39R WCI -16
RICE LAKE      FAIR      -5 -13  68 W3        30.44S
$$

...NORTHEAST IOWA...


CITY           SKY/WX    TMP DP  RH WIND       PRES   REMARKS
DECORAH        CLEAR     -8 -15  71 NW5       30.46R WCI -19
MASON CITY     PTCLDY   -10 -15  78 NW10      30.50S WCI -29
CHARLES CITY   PTCLDY   -15 -20  76 NW7       30.49S WCI -31
OELWEIN        PTCLDY   -15 -20  76 NW6       30.49S WCI -29
$$

...ELSEWHERE IN IOWA...


CITY           SKY/WX    TMP DP  RH WIND       PRES   REMARKS
DES MOINES     CLEAR     -2  -8  76 NW6       30.56S WCI -14
IOWA CITY      CLEAR     -5 -11  75 NW9       30.55R WCI -22
FORT DODGE     CLEAR    -13 -24  58 CALM      30.54R
$$

...NORTHERN ILLINOIS...


CITY           SKY/WX    TMP DP  RH WIND       PRES   REMARKS
CHICAGO-OHARE  CLEAR      2  -8  63 NW8       30.43R WCI -12
CHICAGO-MIDWAY PTCLDY     7  -4  60 NW6       30.44R WCI  -3
MOLINE         CLEAR     -6 -12  75 W6        30.52R WCI -19
ROCKFORD       CLEAR    -10 -16  74 CALM      30.47R
PEORIA         CLEAR      1  -8  66 NW3       30.51R
$$

NOTE: "FAIR" INDICATES FEW OR NO CLOUDS BELOW 12,000 FEET WITH NO
SIGNIFICANT WEATHER AND/OR OBSTRUCTIONS TO VISIBILITY. WIND
SPEEDS ARE IN MILES-PER-HOUR.



USA.gov is the U.S. government's official web portal to all federal, state and local government web resources and services.